Location: ?????
(31.8092°N, 35.2590°E)
Time: 20:35:19
(UTC+00:00)

Meteor 2-11 Rocket - Pass Details

Date: 20 June 2021
Orbit: 938 x 958 km, 82.5° (Epoch: 23 July)

Event Time Altitude Azimuth Distance (km) Brightness Sun altitude
Rises 19:04:09 0° 353° (N) 3,617 8.4 -23.3°
Reaches altitude 10° 19:06:39 10° 353° (N) 2,666 7.6 -23.6°
Maximum altitude 19:12:45 85° 266° (W) 948 4.3 -24.4°
Enters shadow 19:14:28 50° 181° (S) 1,181 4.6 -24.6°
